Overview Statistics Trail Chart Weather Telemetry Raw packets
 

This is the latest recevied weather packets stored in our database for station/object KC5DAQ-28. If no packets are shown the sender has not sent any weather packets the latest 10 day(s).

<< 511 512 513 514 515 516 517 >>
Time Temp. Humidity Pressure Rain* Wind** Luminosity Snow
1787954463 26.67° C 72% 1010.6 hPa 0 mm - 18 W/m² -
1787954403 26.67° C 68% 1010.5 hPa 0 mm - 18 W/m² -
1787954343 27.22° C 68% 1010.4 hPa 0 mm - 18 W/m² -
1787954284 27.22° C 68% 1010.4 hPa 0 mm - 21 W/m² -
1787954223 27.22° C 68% 1010.3 hPa 0 mm - 21 W/m² -
1787954163 27.78° C 68% 1010.2 hPa 0 mm - 21 W/m² -
1787954104 27.78° C 68% 1010.1 hPa 0 mm - 21 W/m² -
1787954043 27.78° C 66% 1010 hPa 0 mm - 21 W/m² -
1787953983 28.33° C 66% 1010 hPa 0 mm - 21 W/m² -
1787953923 28.33° C 65% 1010 hPa 0 mm - 21 W/m² -
1787953865 28.89° C 64% 1009.9 hPa 0 mm - 25 W/m² -
1787953803 28.89° C 65% 1010.1 hPa 0 mm - 25 W/m² -
1787953743 29.44° C 66% 1009.8 hPa 0 mm - 25 W/m² -
1787953684 29.44° C 67% 1009.7 hPa 0 mm - 33 W/m² -
1787953622 29.44° C 67% 1009.7 hPa 0 mm - 33 W/m² -
1787953563 30° C 67% 1009.7 hPa 0 mm - 33 W/m² -
1787953502 30° C 67% 1009.7 hPa 0 mm - 39 W/m² -
1787953443 30.56° C 66% 1009.7 hPa 0 mm - 76 W/m² -
1787953385 30.56° C 66% 1009.8 hPa 0 mm - 76 W/m² -
1787953322 31.11° C 65% 1009.8 hPa 0 mm - 113 W/m² -
1787953264 31.11° C 65% 1009.7 hPa 0 mm - 113 W/m² -
1787953203 31.67° C 65% 1009.4 hPa 0 mm - 113 W/m² -
1787953144 31.67° C 65% 1009.2 hPa 0 mm - 120 W/m² -
1787953083 31.67° C 65% 1009.2 hPa 0 mm - 132 W/m² -
1787953022 31.67° C 65% 1008.9 hPa 0 mm - 132 W/m² -

* Rain latest hour (hover to see other rain measurements)
** Current wind speed in m/s (hover to see current wind gust speed)